Total_Precipitation_Accumulation
1.41 1.52 1.35 1.29 1.17 1.46 1.82 2.02 2.08 2.22 2.31 2.26 1.96 1.70 1.60 1.36 1.14 1.18 1.42 1.69 1.74 1.58 1.49 1.41 1.21 1.18 1.17 1.02 0.90 0.84 0.77 0.72 0.62 0.51 0.44 0.39 0.34 0.24 0.14 0.12 0.12 0.15 0.13
1.63 1.69 1.64 1.54 1.31 1.45 1.77 2.13 2.21 2.41 2.36 2.38 1.87 1.63 1.55 1.53 1.31 1.18 1.25 1.56 1.54 1.41 1.30 1.31 1.31 1.30 1.27 1.15 1.01 0.87 0.77 0.73 0.67 0.55 0.46 0.40 0.34 0.31 0.26 0.20 0.17 0.18 0.16
1.88 2.06 1.95 1.63 1.47 1.65 1.84 1.85 1.97 2.43 2.25 2.17 1.94 1.92 1.84 1.64 1.42 1.29 1.24 1.31 1.27 1.32 1.21 1.14 1.21 1.29 1.33 1.30 1.21 1.06 0.90 0.72 0.62 0.54 0.46 0.39 0.33 0.28 0.30 0.29 0.26 0.26 0.21
1.71 1.88 1.62 1.31 1.47 1.75 1.88 1.78 1.78 2.13 2.17 2.15 2.08 1.97 1.86 1.65 1.43 1.33 1.27 1.17 1.11 0.96 0.99 1.04 1.15 1.26 1.41 1.44 1.42 1.42 1.26 0.92 0.67 0.52 0.43 0.40 0.36 0.27 0.21 0.23 0.27 0.31 0.25
1.08 1.19 1.03 0.98 1.21 1.48 1.48 1.31 1.43 1.69 1.77 1.84 1.79 1.55 1.36 1.16 1.04 1.02 0.98 0.90 0.97 0.94 0.91 0.89 1.06 1.16 1.33 1.55 1.64 1.64 1.55 1.20 0.85 0.67 0.56 0.49 0.47 0.37 0.23 0.19 0.26 0.29 0.26
0.75 0.83 0.82 0.79 0.88 0.92 0.94 1.09 1.24 1.39 1.28 1.34 1.28 1.07 1.02 0.87 0.81 0.77 0.64 0.63 0.70 0.69 0.67 0.79 0.91 0.84 1.04 1.27 1.44 1.55 1.60 1.46 1.08 0.86 0.73 0.68 0.68 0.51 0.30 0.25 0.28 0.25 0.22
0.64 0.64 0.61 0.63 0.69 0.68 0.68 0.82 0.95 0.95 0.78 0.94 1.01 0.80 0.65 0.58 0.57 0.56 0.50 0.49 0.49 0.51 0.60 0.74 0.79 0.76 0.72 0.78 0.95 1.19 1.44 1.53 1.39 1.12 0.90 0.81 0.81 0.64 0.40 0.33 0.29 0.22 0.23
0.54 0.53 0.50 0.48 0.48 0.52 0.53 0.59 0.70 0.70 0.62 0.73 0.82 0.75 0.55 0.48 0.43 0.34 0.37 0.37 0.36 0.45 0.51 0.61 0.76 0.86 0.82 0.86 0.73 0.85 1.23 1.47 1.58 1.48 1.24 1.03 0.92 0.71 0.52 0.46 0.38 0.30 0.26
0.33 0.33 0.32 0.32 0.34 0.39 0.42 0.48 0.56 0.59 0.52 0.51 0.62 0.72 0.55 0.40 0.37 0.34 0.34 0.36 0.42 0.45 0.48 0.62 0.72 0.86 0.96 1.07 1.01 0.88 1.00 1.18 1.57 1.80 1.67 1.30 0.90 0.66 0.54 0.56 0.55 0.42 0.32
0.23 0.23 0.21 0.21 0.22 0.25 0.33 0.35 0.44 0.54 0.53 0.43 0.46 0.55 0.55 0.50 0.43 0.36 0.35 0.34 0.40 0.42 0.48 0.54 0.66 0.82 0.92 1.09 1.13 0.97 0.82 0.92 1.28 1.66 1.76 1.60 1.16 0.76 0.59 0.65 0.79 0.72 0.49
0.23 0.23 0.22 0.20 0.21 0.21 0.24 0.28 0.36 0.46 0.52 0.47 0.44 0.49 0.58 0.57 0.48 0.43 0.35 0.37 0.43 0.36 0.45 0.57 0.67 0.76 0.84 1.03 1.25 1.15 1.06 0.94 0.97 1.15 1.37 1.52 1.50 1.26 1.02 0.97 1.14 1.20 1.03
0.25 0.25 0.25 0.26 0.26 0.26 0.26 0.26 0.28 0.33 0.45 0.53 0.53 0.51 0.55 0.56 0.46 0.43 0.34 0.31 0.39 0.39 0.51 0.69 0.74 0.80 0.87 1.05 1.12 1.09 1.01 0.87 0.75 0.72 0.82 0.97 1.13 1.19 1.14 1.16 1.35 1.52 1.59
0.20 0.22 0.23 0.25 0.27 0.30 0.30 0.28 0.28 0.28 0.36 0.46 0.49 0.52 0.52 0.51 0.54 0.55 0.51 0.41 0.43 0.47 0.62 0.75 0.87 0.93 0.94 1.06 1.06 1.00 0.83 0.67 0.54 0.48 0.52 0.61 0.70 0.85 1.02 1.14 1.28 1.43 1.60
0.19 0.20 0.20 0.19 0.22 0.27 0.31 0.34 0.32 0.33 0.36 0.38 0.38 0.52 0.57 0.51 0.61 0.65 0.68 0.71 0.63 0.63 0.77 0.85 0.98 1.03 1.13 1.15 1.07 0.96 0.76 0.61 0.47 0.42 0.39 0.40 0.44 0.49 0.62 0.77 0.94 1.15 1.33
0.21 0.20 0.20 0.20 0.22 0.24 0.28 0.32 0.32 0.34 0.37 0.38 0.41 0.51 0.59 0.65 0.69 0.66 0.76 0.84 0.85 0.77 0.84 0.92 0.88 0.88 0.93 0.94 0.88 0.75 0.62 0.56 0.47 0.38 0.35 0.34 0.35 0.36 0.40 0.44 0.47 0.51 0.58
0.19 0.20 0.20 0.19 0.20 0.21 0.23 0.26 0.28 0.35 0.42 0.47 0.54 0.59 0.61 0.67 0.76 0.69 0.75 0.82 0.84 0.89 0.92 0.86 0.78 0.79 0.76 0.65 0.62 0.57 0.53 0.57 0.47 0.38 0.32 0.31 0.31 0.32 0.34 0.36 0.36 0.37 0.39
0.13 0.14 0.16 0.18 0.19 0.21 0.25 0.31 0.34 0.38 0.48 0.60 0.69 0.72 0.75 0.77 0.81 0.79 0.85 0.86 0.81 0.89 0.88 0.75 0.81 0.87 0.77 0.59 0.48 0.46 0.47 0.50 0.47 0.44 0.38 0.34 0.31 0.28 0.28 0.30 0.32 0.34 0.33
0.12 0.12 0.13 0.14 0.14 0.15 0.21 0.31 0.42 0.44 0.47 0.55 0.77 0.99 1.01 1.01 0.93 0.84 0.92 0.91 0.87 1.01 0.96 0.85 0.94 0.96 0.91 0.73 0.58 0.49 0.42 0.42 0.45 0.45 0.40 0.39 0.36 0.30 0.26 0.26 0.27 0.27 0.26
0.11 0.12 0.13 0.13 0.12 0.12 0.14 0.22 0.35 0.40 0.49 0.63 0.79 0.92 1.04 1.16 1.05 0.95 0.93 0.93 0.96 1.05 1.03 0.93 0.97 1.11 1.14 0.95 0.70 0.49 0.38 0.38 0.40 0.45 0.41 0.36 0.36 0.35 0.31 0.27 0.24 0.24 0.23
0.10 0.12 0.14 0.14 0.14 0.12 0.12 0.18 0.26 0.34 0.47 0.65 0.72 0.67 0.77 1.03 1.14 1.06 0.95 0.90 0.94 0.99 0.99 1.01 1.06 1.20 1.25 1.19 0.93 0.64 0.48 0.38 0.34 0.37 0.42 0.38 0.35 0.34 0.33 0.29 0.26 0.25 0.25
0.08 0.12 0.15 0.15 0.15 0.13 0.11 0.18 0.27 0.23 0.28 0.37 0.41 0.41 0.46 0.65 0.92 1.09 1.03 0.93 0.92 0.90 0.91 1.00 1.08 1.18 1.20 1.23 1.07 0.82 0.62 0.51 0.41 0.38 0.41 0.39 0.36 0.31 0.29 0.29 0.27 0.23 0.21
0.12 0.17 0.20 0.20 0.20 0.14 0.11 0.13 0.16 0.18 0.21 0.24 0.27 0.31 0.31 0.32 0.43 0.66 0.87 0.98 1.02 0.96 0.89 0.94 1.08 1.13 1.13 1.12 1.10 0.96 0.75 0.58 0.48 0.44 0.45 0.45 0.46 0.41 0.32 0.26 0.26 0.23 0.20
0.16 0.21 0.25 0.27 0.29 0.28 0.18 0.12 0.09 0.12 0.17 0.20 0.26 0.29 0.23 0.20 0.28 0.37 0.50 0.64 0.78 0.84 0.85 0.91 0.99 1.09 1.16 1.24 1.22 1.06 0.86 0.72 0.59 0.52 0.51 0.49 0.49 0.49 0.46 0.38 0.36 0.29 0.24
0.23 0.27 0.30 0.33 0.39 0.37 0.26 0.17 0.14 0.12 0.17 0.22 0.27 0.30 0.29 0.27 0.29 0.35 0.42 0.44 0.50 0.57 0.61 0.67 0.79 0.96 1.15 1.31 1.40 1.30 1.15 0.93 0.80 0.72 0.65 0.54 0.48 0.46 0.46 0.46 0.45 0.38 0.31
0.31 0.32 0.34 0.39 0.43 0.47 0.35 0.21 0.18 0.19 0.25 0.26 0.28 0.30 0.32 0.32 0.28 0.23 0.32 0.36 0.38 0.43 0.47 0.55 0.63 0.81 1.09 1.29 1.36 1.39 1.26 1.05 0.86 0.74 0.66 0.58 0.51 0.48 0.48 0.42 0.40 0.40 0.35
0.40 0.39 0.37 0.42 0.47 0.54 0.46 0.26 0.21 0.26 0.33 0.35 0.41 0.42 0.35 0.32 0.29 0.20 0.26 0.33 0.34 0.37 0.43 0.46 0.53 0.60 0.74 1.02 1.25 1.15 1.06 0.98 0.84 0.69 0.53 0.50 0.52 0.51 0.46 0.37 0.32 0.31 0.29